Regional Weather Roundup
Issued by NWS Upton, NY

Current Version | Previous Version | Text Only | Print | Product List | Glossary On
Versions: 1 2 3 4 5 6 7 8 9 10 11 12 13 14 15 16 17 18 19 20 21 22 23 24 25 26 27 28
000
ASUS41 KOKX 250208
RWROKX

REGIONAL WEATHER ROUNDUP
NATIONAL WEATHER SERVICE NEW YORK NY
1000 PM EDT SUN SEP 24 2017

NOTE: "FAIR" INDICATES FEW OR NO CLOUDS BELOW 12,000 FEET WITH NO
SIGNIFICANT WEATHER AND/OR OBSTRUCTIONS TO VISIBILITY.

NYZ071-072-176-178-NJZ106-104-250300-
NEW YORK CITY METRO AREA

CITY           SKY/WX    TMP DP  RH WIND       PRES   REMARKS
Central Park   CLEAR     78  62  57 CALM      30.08S
Bronx Bot Gard   N/A    N/A N/A N/A E2        30.06F
LaGuardia APRT PTCLDY    77  63  61 S6        30.05R
Kennedy INTL   CLEAR     72  64  76 SE3       30.06S
Breezy Point     N/A     70 N/A N/A S3          N/A
Newark/Liberty CLEAR     78  65  63 CALM      30.05R
Teterboro      CLEAR     77  64  64 SW5       30.04R
$$

NYZ177-179-078>081-250300-
LONG ISLAND NEW YORK

CITY           SKY/WX    TMP DP  RH WIND       PRES   REMARKS
Jones Beach      N/A     72 N/A N/A CALM        N/A
Matinecock PT    N/A     73 N/A N/A SW5         N/A
Farmingdale    CLEAR     72  64  76 CALM      30.06R
MacArthur/ISP  PTCLDY    71  63  75 SW5       30.06R
Shirley        CLEAR     68  63  84 SW3       30.07R
Mt Sinai Harb    N/A    N/A N/A N/A S5          N/A
Westhampton    CLEAR     62  57  83 CALM      30.08R
East Hampton   FAIR      61  59  93 CALM      30.06R
Montauk          N/A     65  63  93 CALM      30.07R
$$

NYZ052-065-067-250300-
HUDSON VALLEY

CITY           SKY/WX    TMP DP  RH WIND       PRES   REMARKS
White Plains   CLEAR     71  63  75 CALM      30.07R
Larchmont Harb   N/A     73 N/A N/A S5          N/A
Croton On Huds   N/A     73 N/A N/A CALM        N/A
Newburgh       CLEAR     72  70  94 VRB5      30.08R
Montgomery     CLEAR     69  67  93 CALM      30.07R
Poughkeepsie   CLEAR     69  66  90 CALM      30.05R
Albany         CLEAR     72  67  84 CALM      30.06R
$$

NJZ001-105-106-008-010-013-015-019>022-104-250300-
NEW JERSEY

CITY           SKY/WX    TMP DP  RH WIND       PRES   REMARKS
Newark/Liberty CLEAR     78  65  63 CALM      30.05R
Teterboro      CLEAR     77  64  64 SW5       30.04R
Caldwell       CLEAR     74  70  87 CALM      30.07R
Somerville     NOT AVBL
Linden         FAIR      76  66  71 CALM      30.06R
Perth Amboy      N/A     75 N/A N/A SE1         N/A
Sussex         CLEAR     69  69 100 CALM      30.08R
Andover          N/A     69  67  93 CALM      30.09R
Trenton        CLEAR     77  66  68 CALM      30.05S
Millville      CLEAR     68  67  96 CALM      30.06R
Atlantic City  CLEAR     66  64  93 CALM      30.06R
Wrightstown    CLEAR     72  65  78 S3        30.03S
Toms River     CLEAR     67  64  90 CALM      30.07R
Belmar         CLEAR     73  63  70 S3        30.07S
$$

PAZ047>061-062-071-250300-
EASTERN PENNSYLVANIA

CITY           SKY/WX    TMP DP  RH WIND       PRES   REMARKS
Philadelphia   CLEAR     78  66  66 SW3       30.06R
Allentown      CLEAR     73  66  78 CALM      30.07S
Scranton       CLEAR     74  66  76 E7        30.11R
$$

CTZ002-004>006-009-010-012-RIZ004-006-007-MAZ004-011-015-250300-
SOUTHERN NEW ENGLAND
 IN CT

CITY           SKY/WX    TMP DP  RH WIND       PRES   REMARKS
Bradley INTL   PTCLDY    74  70  87 CALM      30.04R
Hartford       CLEAR     72  68  87 S3        30.03S
Danbury        CLEAR     69  67  93 SW3       30.08R
Wtrbury/Oxford CLEAR     70  64  81 CALM      30.08S
Norwalk Harbor   N/A     73 N/A N/A SW7         N/A
Bridgeport     CLEAR     74  65  73 CALM      30.05R
Meriden        CLEAR     68  64  87 CALM      30.05R
New Haven      CLEAR     69  63  81 CALM      30.06R
Chester        FAIR      70  59  68 CALM      30.07R
Groton         CLEAR     66  61  84 CALM      30.05R
Wilimantic     CLEAR     71  67  87 CALM      30.05S

 IN RI

CITY           SKY/WX    TMP DP  RH WIND       PRES   REMARKS
Providence     CLEAR     69  63  81 S3        30.06R
Block Island   NOT AVBL
Westerly       CLEAR     66  62  87 CALM      30.06S
 IN MA

CITY           SKY/WX    TMP DP  RH WIND       PRES   REMARKS
Boston         CLEAR     70  64  81 CALM      30.04S
Worcester      CLEAR     71  63  75 SW5       30.08R
Westfield      CLEAR     69  67  93 CALM      30.04S
Provincetown   CLEAR     66  65  96 S3        30.06R
Nantucket      CLOUDY    61  61 100 CALM      30.05R FOG
$$

ANZ330-335-338-340-345-350-353-355-250300-
COASTAL MARINE OBSERVATIONS


STATION/POSITION TIME  SKY/WX   TEMP    WIND        PRES    VSBY  WAVE
                                AIR SEA DIR/SP/G                  HT/PER
                 (UTC)          (F)     (DEG/KT/KT) (MB)    (MI)  (FT/S)
NY HARB ENTRANCE 0050            73 72  210/  6/  8 1016.9          3/11
20 S FIRE ISLAND 0050            69 67  220/  4/  4 1017.7          4/12
GREAT SOUTH BAY  0115            71 73  220/  4/  6   N/A
23 SSW MONTAUK P 0050            67 66              1017.6          5/14
15 E BARNEGAT LI 0130               70                N/A           3/12
HUDSON CANYON    0050            68 69   60/  4/  4 1016.9          5/12
KINGS POINT      0130            74 73  190/  4/  5 1018.4
EXECUTION ROCKS  0145            75     180/  4/  6   N/A
WESTERN LI SOUND NOT AVBL
CENTRAL LI SOUND 0100            73     180/  4/  4   N/A           0
EASTERN LI SOUND NOT AVBL
ROBBINS REEF     0130            74     180/  5/  5 1018.3
$$


>>>>>>>>>>>>>>>>>>>>>>>>>>>> KEY <<<<<<<<<<<<<<<<<<<<<<<<<<<
>                                                          <
>     SKY/WX - Sky Condition/Present Weather               <
>     TMP    - Temperature in Fahrenheit                   <
>     DP     - Dew Point in Fahrenheit                     <
>     RH     - Relative Humidity in Percent                <
>     WIND   - Direction (from) and Speed in MPH           <
>     PRES   - Mean Sea Level Pressure (inches of Hg)      <
>     WCI    - Wind Chill Index                            <
>     VSB    - VISIBILITY IN MILES                         <
>     HX     - HEAT INDEX                                  <
>     TC     - TEMPERATURE IN CELSIUS                      <
>     VRB    - VARIABLE WIND DIRECTION                     <
>                                                          <
>>>>>>>>>>>>>>>>>>>>>>>>>>>> KEY <<<<<<<<<<<<<<<<<<<<<<<<<<<




USA.gov is the U.S. government's official web portal to all federal, state and local government web resources and services.